Location: Maignaut
(43.8886°N, 0.4051°E)
Time: 04:49:36
(UTC+00:00)

Cosmos 1898 Rocket - Pass Details

Date: 27 February 2020
Orbit: 754 x 783 km, 74.0° (Epoch: 31 March)

Event Time Altitude Azimuth Distance (km) Brightness Sun altitude
Rises 18:58:16 0° 339° (NNW) 3,217 7.0 -14.2°
Reaches altitude 10° 19:00:38 10° 340° (NNW) 2,289 6.3 -14.7°
Maximum altitude 19:05:50 88° 68° (ENE) 763 3.4 -15.6°
Drops below altitude 10° 19:11:01 10° 160° (SSE) 2,283 5.7 -16.5°
Sets 19:13:23 0° 161° (SSE) 3,208 6.5 -17.0°
